TimeEDT,TemperatureF,Dew PointF,Humidity,Sea Level PressureIn,VisibilityMPH,Wind Direction,Wind SpeedMPH,Gust SpeedMPH,PrecipitationIn,Events,Conditions,WindDirDegrees,DateUTC
12:53 AM,71.1,66.9,87,29.83,10.0,South,3.5,-,N/A,,Clear,170,2013-06-27 04:53:00
1:53 AM,71.1,66.9,87,29.82,10.0,Calm,Calm,-,N/A,,Clear,0,2013-06-27 05:53:00
2:53 AM,71.1,66.0,84,29.81,10.0,South,3.5,-,N/A,,Partly Cloudy,180,2013-06-27 06:53:00
3:53 AM,71.1,64.9,81,29.79,10.0,South,3.5,-,N/A,,Partly Cloudy,180,2013-06-27 07:53:00
4:53 AM,70.0,64.9,84,29.77,10.0,ESE,3.5,-,N/A,,Clear,110,2013-06-27 08:53:00
5:53 AM,70.0,64.9,84,29.77,10.0,Calm,Calm,-,N/A,,Overcast,0,2013-06-27 09:53:00
6:53 AM,70.0,66.9,90,29.77,4.0,Calm,Calm,-,0.02,Rain,Light Rain,0,2013-06-27 10:53:00
7:14 AM,68.0,66.2,94,29.80,1.8,Calm,Calm,-,0.05,Rain,Rain,0,2013-06-27 11:14:00
7:29 AM,68.0,66.2,94,29.79,2.5,Calm,Calm,-,0.08,Rain,Light Rain,0,2013-06-27 11:29:00
7:36 AM,69.8,66.2,88,29.79,3.0,Calm,Calm,-,0.09,Rain,Light Rain,0,2013-06-27 11:36:00
7:43 AM,69.8,66.2,88,29.79,1.8,Calm,Calm,-,0.11,Rain,Rain,0,2013-06-27 11:43:00
7:53 AM,69.1,66.9,93,29.76,1.5,Calm,Calm,-,0.14,Rain,Rain,0,2013-06-27 11:53:00
8:03 AM,69.8,66.2,88,29.79,2.5,NW,3.5,-,0.02,Rain,Rain,310,2013-06-27 12:03:00
8:16 AM,68.0,66.2,94,29.79,3.0,Variable,4.6,-,0.04,Rain,Light Rain,0,2013-06-27 12:16:00
8:27 AM,69.8,66.2,88,29.79,2.5,Calm,Calm,-,0.05,Rain,Light Rain,0,2013-06-27 12:27:00
8:42 AM,69.8,66.2,88,29.79,1.2,WNW,3.5,-,0.11,Rain,Rain,290,2013-06-27 12:42:00
8:51 AM,68.0,66.2,94,29.80,0.8,West,4.6,-,0.20,Rain,Heavy Rain,280,2013-06-27 12:51:00
8:52 AM,68.0,66.9,96,29.77,0.8,West,4.6,-,0.21,Rain,Heavy Rain,280,2013-06-27 12:52:00
9:01 AM,68.0,66.2,94,29.80,0.2,Calm,Calm,-,0.20,Fog-Rain,Heavy Rain,0,2013-06-27 13:01:00
9:09 AM,68.0,66.2,94,29.80,0.2,Calm,Calm,-,0.31,Fog-Rain,Heavy Rain,0,2013-06-27 13:09:00
9:14 AM,68.0,66.2,94,29.80,1.0,Calm,Calm,-,0.32,Rain,Rain,0,2013-06-27 13:14:00
9:31 AM,69.8,68.0,94,29.79,2.0,Calm,Calm,-,0.37,Rain,Rain,0,2013-06-27 13:31:00
9:36 AM,69.8,66.2,88,29.79,4.0,Calm,Calm,-,0.37,Rain,Light Rain,0,2013-06-27 13:36:00
9:45 AM,69.8,66.2,88,29.79,9.0,Calm,Calm,-,0.37,Rain,Light Rain,0,2013-06-27 13:45:00
9:53 AM,69.1,66.9,93,29.76,10.0,Calm,Calm,-,0.37,Rain,Light Rain,0,2013-06-27 13:53:00
10:36 AM,69.8,66.2,88,29.79,9.0,SSW,3.5,-,0.01,,Overcast,200,2013-06-27 14:36:00
10:45 AM,69.8,66.2,88,29.79,10.0,Calm,Calm,-,0.01,,Overcast,0,2013-06-27 14:45:00
10:53 AM,69.1,66.9,93,29.76,10.0,Calm,Calm,-,0.01,Rain,Light Rain,0,2013-06-27 14:53:00
11:18 AM,69.8,66.2,88,29.79,9.0,SSW,4.6,-,0.01,Rain,Light Rain,210,2013-06-27 15:18:00
11:53 AM,70.0,68.0,93,29.77,10.0,SSW,4.6,-,0.01,,Overcast,200,2013-06-27 15:53:00
12:22 PM,69.8,66.2,88,29.78,10.0,SSW,5.8,-,N/A,,Overcast,200,2013-06-27 16:22:00
12:53 PM,70.0,66.9,90,29.76,2.5,Calm,Calm,-,0.00,Rain,Light Rain,0,2013-06-27 16:53:00
1:00 PM,69.8,66.2,88,29.78,2.0,SW,6.9,-,0.01,Rain,Light Rain,230,2013-06-27 17:00:00
1:12 PM,69.8,68.0,94,29.78,6.0,South,5.8,-,0.01,,Overcast,190,2013-06-27 17:12:00
1:53 PM,69.1,66.9,93,29.75,2.5,Variable,3.5,-,0.01,Rain,Light Rain,0,2013-06-27 17:53:00
1:58 PM,69.8,68.0,94,29.77,3.0,SSW,4.6,-,0.00,Rain,Light Rain,210,2013-06-27 17:58:00
2:29 PM,69.8,68.0,94,29.76,8.0,Variable,5.8,-,0.00,,Overcast,0,2013-06-27 18:29:00
2:45 PM,71.6,68.0,88,29.76,10.0,SSW,11.5,16.1,0.00,,Overcast,210,2013-06-27 18:45:00
2:53 PM,71.1,66.9,87,29.73,10.0,SSW,5.8,16.1,0.00,,Overcast,210,2013-06-27 18:53:00
3:26 PM,73.4,68.0,83,29.75,10.0,SW,6.9,-,N/A,,Overcast,220,2013-06-27 19:26:00
3:33 PM,73.4,66.2,78,29.75,10.0,SW,5.8,-,N/A,,Overcast,220,2013-06-27 19:33:00
3:53 PM,72.0,66.0,81,29.72,10.0,SW,8.1,-,N/A,,Overcast,230,2013-06-27 19:53:00
4:53 PM,71.1,66.9,87,29.72,10.0,SW,8.1,-,N/A,,Overcast,230,2013-06-27 20:53:00
5:53 PM,70.0,66.9,90,29.70,6.0,SW,5.8,-,0.00,,Overcast,220,2013-06-27 21:53:00
6:53 PM,70.0,66.9,90,29.70,10.0,SSW,4.6,-,N/A,,Overcast,210,2013-06-27 22:53:00
7:22 PM,69.8,66.2,88,29.74,9.0,SSW,5.8,-,N/A,,Overcast,210,2013-06-27 23:22:00
7:53 PM,70.0,66.9,90,29.71,8.0,SSW,5.8,-,N/A,,Overcast,210,2013-06-27 23:53:00
8:02 PM,69.8,66.2,88,29.75,8.0,SSW,5.8,-,N/A,,Overcast,210,2013-06-28 00:02:00
8:18 PM,69.8,66.2,88,29.74,8.0,SSW,6.9,-,N/A,,Overcast,210,2013-06-28 00:18:00
8:51 PM,69.8,66.2,88,29.73,8.0,SSW,6.9,-,N/A,,Overcast,210,2013-06-28 00:51:00
8:53 PM,70.0,66.9,90,29.71,8.0,SSW,6.9,-,N/A,,Overcast,210,2013-06-28 00:53:00
9:00 PM,69.8,66.2,88,29.74,8.0,SSW,4.6,-,N/A,,Overcast,210,2013-06-28 01:00:00
9:12 PM,69.8,66.2,88,29.74,9.0,SSW,5.8,-,N/A,,Overcast,200,2013-06-28 01:12:00
9:23 PM,69.8,66.2,88,29.73,9.0,SSW,5.8,-,N/A,,Overcast,210,2013-06-28 01:23:00
9:53 PM,70.0,66.9,90,29.71,9.0,SSW,6.9,-,N/A,,Overcast,210,2013-06-28 01:53:00
10:37 PM,69.8,66.2,88,29.73,9.0,SSW,5.8,-,N/A,,Scattered Clouds,210,2013-06-28 02:37:00
10:53 PM,69.1,66.9,93,29.70,8.0,SSW,5.8,-,N/A,,Clear,210,2013-06-28 02:53:00
11:19 PM,69.8,66.2,88,29.72,7.0,SSW,3.5,-,N/A,,Scattered Clouds,210,2013-06-28 03:19:00
11:24 PM,69.8,66.2,88,29.73,7.0,SW,4.6,-,N/A,,Mostly Cloudy,220,2013-06-28 03:24:00
11:53 PM,70.0,68.0,93,29.69,7.0,SSW,4.6,-,N/A,,Overcast,200,2013-06-28 03:53:00